Location: Great Falls Observatory Park
(38.9954°N, 77.3130°W)
Time: 01:17:58
(UTC-04:00)

Hubble Space Telescope - Visible Passes

Search period start: 20 March 2019 00:00
Search period end: 30 March 2019 00:00
Orbit: 537 x 540 km, 28.5° (Epoch: 18 March)

Date Brightness Start Highest point End Pass type
(mag) Time Alt. Az. Time Alt. Az. Time Alt. Az.
24 Mar 3.1 21:02:28 10° SSW 21:03:28 12° S 21:03:28 12° S visible
25 Mar 2.8 20:51:32 10° SSW 20:53:49 15° S 20:53:49 15° S visible
26 Mar 2.6 20:40:42 10° SSW 20:43:21 16° S 20:44:06 16° SSE visible
27 Mar 2.6 20:29:57 10° SW 20:32:45 18° S 20:34:20 15° SE visible
28 Mar 2.6 20:19:16 10° SW 20:22:10 18° S 20:24:32 12° SE visible
29 Mar 2.6 20:08:38 10° SW 20:11:34 19° S 20:14:31 10° SE visible
29 Mar 3.5 21:49:44 10° SW 21:50:02 11° SW 21:50:02 11° SW visible
